Weather History for KFSE - February, 2014

Change the Weather History Date:

Sunday, February 9, 2014

  Actual Average Record
Temperature  
Mean Temperature -11 °F -  
Max Temperature 1 °F 20 °F 48 °F (1991)
Min Temperature -25 °F -2 °F -30 °F (1972)
Degree Days  
Heating Degree Days 76    
Moisture  
Dew Point -21 °F    
Average Humidity 71    
Maximum Humidity 84    
Minimum Humidity 47    
Precipitation  
Precipitation 0.00 in - - ()
Sea Level Pressure  
Sea Level Pressure 30.29 in    
Wind  
Wind Speed 3 mph (West)    
Max Wind Speed 12 mph    
Max Gust Speed -    
Visibility 10 miles    
Events Snow    
Averages and records for this station are not official NWS values.
T = Trace of Precipitation, MM = Missing Value Source: NWS Daily Summary

Daily Weather History Graph

Daily Weather History Graph

Search for Another Location

Airport or City:

Trip Planner

Search our weather history database for the weather conditions in past years. The results will help you decide how hot, cold, wet, or windy it might be!

Date:

Astronomy

Feb. 09, 2014 Rise Set
Actual Time 7:38 AM CST 5:37 PM CST
Civil Twilight 7:05 AM CST 6:09 PM CST
Nautical Twilight 6:29 AM CST 6:45 PM CST
Astronomical Twilight 5:53 AM CST 7:21 PM CST
Moon 1:10 PM CST (2/9) 3:51 AM CST (2/9)
Length of Visible Light 11h 03m
Length of Day
9h 58m
Waxing Gibbous, 77% of the Moon is Illuminated
Feb 9
Waxing Gibbous
Feb 14
Full
Feb 22
Last Quarter
Mar 1
New
Mar 8
First Quarter

Hourly Weather History & Observations

Time (CST) Temp. Windchill Dew Point Humidity Pressure Visibility Wind Dir Wind Speed Gust Speed Precip Events Conditions
12:15 AM -11.2 °F -24.8 °F -16.6 °F 77% 30.24 in 10.0 mi NW 5.8 mph - N/A   Clear
12:35 AM -11.2 °F -20.6 °F -16.6 °F 77% 30.24 in 10.0 mi NW 3.5 mph - N/A   Clear
12:55 AM -13.0 °F -28.6 °F -16.6 °F 84% 30.25 in 10.0 mi NW 6.9 mph - N/A   Clear
1:15 AM -13.0 °F -25.1 °F -16.6 °F 84% 30.25 in 10.0 mi NW 4.6 mph - N/A   Clear
1:35 AM -14.8 °F -27.2 °F -18.4 °F 84% 30.24 in 10.0 mi NW 4.6 mph - N/A   Clear
1:55 AM -14.8 °F -24.8 °F -18.4 °F 84% 30.24 in 10.0 mi WNW 3.5 mph - N/A   Clear
2:15 AM -16.6 °F - -20.2 °F 84% 30.24 in 10.0 mi Calm Calm - N/A   Clear
2:35 AM -16.6 °F -26.8 °F -20.2 °F 84% 30.24 in 10.0 mi NW 3.5 mph - N/A   Clear
2:55 AM -16.6 °F - -20.2 °F 84% 30.24 in 10.0 mi Calm Calm - N/A   Clear
3:15 AM -18.4 °F - -22.0 °F 84% 30.24 in 10.0 mi Calm Calm - N/A   Clear
3:35 AM -18.4 °F -28.9 °F -25.6 °F 70% 30.24 in 10.0 mi WNW 3.5 mph - N/A   Clear
3:55 AM -18.4 °F - -23.8 °F 76% 30.24 in 10.0 mi Calm Calm - N/A   Clear
4:15 AM -18.4 °F - -23.8 °F 76% 30.24 in 10.0 mi Calm Calm - N/A   Clear
4:35 AM -22.0 °F - -27.4 °F 76% 30.24 in 10.0 mi Calm Calm - N/A   Clear
4:55 AM -20.2 °F - -25.6 °F 76% 30.24 in 10.0 mi Calm Calm - N/A   Clear
5:15 AM -20.2 °F - -25.6 °F 76% 30.24 in 10.0 mi Calm Calm - N/A   Clear
5:35 AM -22.0 °F -33.0 °F -27.4 °F 76% 30.24 in 10.0 mi SSW 3.5 mph - N/A   Clear
5:55 AM -22.0 °F - -27.4 °F 76% 30.24 in 10.0 mi Calm Calm - N/A   Clear
6:15 AM -22.0 °F - -27.4 °F 76% 30.24 in 10.0 mi Calm Calm - N/A   Clear
6:35 AM -22.0 °F - -27.4 °F 76% 30.24 in 10.0 mi Calm Calm - N/A   Clear
6:55 AM -22.0 °F - -27.4 °F 76% 30.24 in 10.0 mi Calm Calm - N/A   Clear
7:15 AM -22.0 °F - -27.4 °F 76% 30.24 in 10.0 mi Calm Calm - N/A   Clear
7:35 AM -23.8 °F - -29.2 °F 76% 30.24 in 10.0 mi Calm Calm - N/A   Clear
7:55 AM -23.8 °F -35.0 °F -29.2 °F 76% 30.24 in 10.0 mi South 3.5 mph - N/A   Clear
8:15 AM -20.2 °F - -27.4 °F 69% 30.25 in 10.0 mi Calm Calm - N/A   Clear
8:35 AM -20.2 °F - -27.4 °F 69% 30.26 in 10.0 mi Calm Calm - N/A   Clear
8:55 AM -18.4 °F - -23.8 °F 76% 30.26 in 10.0 mi Calm Calm - N/A   Clear
9:15 AM -18.4 °F - -23.8 °F 76% 30.26 in 10.0 mi Calm Calm - N/A   Clear
9:35 AM -14.8 °F - -18.4 °F 84% 30.27 in 10.0 mi Calm Calm - N/A   Clear
9:55 AM -11.2 °F - -16.6 °F 77% 30.28 in 10.0 mi Calm Calm - N/A   Clear
10:15 AM -7.6 °F - -13.0 °F 77% 30.28 in 10.0 mi Calm Calm - N/A   Clear
10:35 AM -5.8 °F -14.5 °F -13.0 °F 71% 30.29 in 10.0 mi WNW 3.5 mph - N/A   Clear
10:55 AM -2.2 °F -10.4 °F -13.0 °F 60% 30.30 in 10.0 mi West 3.5 mph - N/A   Clear
11:15 AM -2.2 °F - -14.8 °F 55% 30.30 in 10.0 mi Calm Calm - N/A   Clear
11:35 AM -0.4 °F -8.3 °F -14.8 °F 51% 30.30 in 10.0 mi WNW 3.5 mph - N/A   Clear
11:55 AM 1.4 °F -8.3 °F -14.8 °F 47% 30.30 in 10.0 mi West 4.6 mph - N/A   Clear
12:15 PM -0.4 °F -8.3 °F -14.8 °F 51% 30.30 in 10.0 mi WNW 3.5 mph - N/A   Clear
12:35 PM 1.4 °F -8.3 °F -14.8 °F 47% 30.30 in 10.0 mi NW 4.6 mph - N/A   Clear
12:55 PM -0.4 °F -12.0 °F -14.8 °F 51% 30.29 in 10.0 mi NW 5.8 mph - N/A   Scattered Clouds
1:15 PM 1.4 °F -8.3 °F -14.8 °F 47% 30.29 in 10.0 mi West 4.6 mph - N/A   Mostly Cloudy
1:35 PM -0.4 °F -14.7 °F -14.8 °F 51% 30.30 in 10.0 mi WNW 8.1 mph - N/A   Overcast
1:55 PM -0.4 °F -14.7 °F -14.8 °F 51% 30.30 in 10.0 mi WNW 8.1 mph - N/A   Scattered Clouds
2:15 PM -0.4 °F -14.7 °F -14.8 °F 51% 30.29 in 10.0 mi WNW 8.1 mph - N/A   Clear
2:35 PM -0.4 °F -15.7 °F -14.8 °F 51% 30.30 in 10.0 mi NW 9.2 mph - N/A   Clear
2:55 PM -2.2 °F -18.9 °F -14.8 °F 55% 30.30 in 10.0 mi NW 10.4 mph - N/A   Clear
3:15 PM -2.2 °F -19.9 °F -14.8 °F 55% 30.30 in 10.0 mi WNW 11.5 mph - N/A   Clear
3:35 PM -2.2 °F -18.0 °F -14.8 °F 55% 30.30 in 10.0 mi WNW 9.2 mph - N/A   Clear
3:55 PM -2.2 °F -18.0 °F -14.8 °F 55% 30.31 in 10.0 mi WNW 9.2 mph - N/A   Clear
4:15 PM -4.0 °F -20.2 °F -14.8 °F 60% 30.31 in 10.0 mi West 9.2 mph - N/A   Clear
4:35 PM -5.8 °F -21.2 °F -16.6 °F 60% 30.31 in 10.0 mi West 8.1 mph - N/A   Clear
4:55 PM -5.8 °F -21.2 °F -16.6 °F 60% 30.32 in 10.0 mi West 8.1 mph - N/A   Clear
5:15 PM -7.6 °F -23.4 °F -16.6 °F 65% 30.32 in 10.0 mi West 8.1 mph - N/A   Clear
5:35 PM -11.2 °F -26.4 °F -18.4 °F 70% 30.33 in 10.0 mi West 6.9 mph - N/A   Clear
5:55 PM -13.0 °F -27.0 °F -18.4 °F 77% 30.34 in 10.0 mi WNW 5.8 mph - N/A   Clear
6:15 PM -14.8 °F -29.1 °F -20.2 °F 77% 30.34 in 10.0 mi West 5.8 mph - N/A   Clear
6:35 PM -14.8 °F -24.8 °F -20.2 °F 77% 30.35 in 10.0 mi WSW 3.5 mph - N/A   Clear
6:55 PM -16.6 °F -26.8 °F -20.2 °F 84% 30.35 in 10.0 mi WSW 3.5 mph - N/A   Clear
7:14 PM -16.6 °F -31.3 °F -20.2 °F 84% 30.35 in 10.0 mi WSW 5.8 mph - N/A   Clear
7:35 PM -16.6 °F -26.8 °F -22.0 °F 76% 30.35 in 10.0 mi SW 3.5 mph - N/A   Clear
7:55 PM -18.4 °F -31.4 °F -23.8 °F 76% 30.34 in 10.0 mi SW 4.6 mph - N/A   Clear
8:14 PM -18.4 °F -31.4 °F -25.6 °F 70% 30.35 in 10.0 mi SW 4.6 mph - N/A   Clear
8:35 PM -18.4 °F -31.4 °F -23.8 °F 76% 30.35 in 7.0 mi SW 4.6 mph - N/A   Clear
8:55 PM -18.4 °F -31.4 °F -23.8 °F 76% 30.35 in 4.0 mi SW 4.6 mph - N/A Snow Light Snow
9:14 PM -18.4 °F - -25.6 °F 70% 30.35 in 3.0 mi Calm Calm - N/A Snow Light Snow
9:35 PM -20.2 °F -30.9 °F -25.6 °F 76% 30.36 in 4.0 mi WSW 3.5 mph - N/A Snow Light Snow
9:55 PM -20.2 °F -30.9 °F -27.4 °F 69% 30.36 in 10.0 mi SW 3.5 mph - N/A   Clear
10:14 PM -23.8 °F -35.0 °F -27.4 °F 83% 30.36 in 10.0 mi SW 3.5 mph - N/A   Clear
10:35 PM -23.8 °F - -27.4 °F 83% 30.36 in 10.0 mi Calm Calm - N/A   Clear
10:55 PM -22.0 °F - -27.4 °F 76% 30.36 in 3.0 mi Calm Calm - N/A   Haze
11:14 PM -22.0 °F - -27.4 °F 76% 30.36 in 10.0 mi Calm Calm - N/A   Clear
11:35 PM -22.0 °F - -27.4 °F 76% 30.36 in 10.0 mi Calm Calm - N/A   Clear
11:55 PM -25.6 °F - -32.8 °F 69% 30.36 in 10.0 mi Calm Calm - N/A   Clear